Time,TemperatureF,DewpointF,PressureIn,WindDirection,WindDirectionDegrees,WindSpeedMPH,WindSpeedGustMPH,Humidity,HourlyPrecipIn,Conditions,Clouds,dailyrainin,SoftwareType,DateUTC
2013-02-17 00:05:00,36.3,30.8,30.09,SSW,202,0.0,-999.0,80,-99.99,,,0.00,Acu-Link.com,2013-02-17 06:05:00,
2013-02-17 00:21:00,34.5,29.6,30.09,West,270,0.0,-999.0,82,-99.99,,,0.00,Acu-Link.com,2013-02-17 06:21:00,
2013-02-17 00:36:00,33.4,29.1,30.08,NE,45,0.0,-999.0,84,-99.99,,,0.00,Acu-Link.com,2013-02-17 06:36:00,
2013-02-17 00:51:00,33.1,29.9,30.08,SW,225,0.0,-999.0,88,-99.99,,,0.00,Acu-Link.com,2013-02-17 06:51:00,
2013-02-17 01:06:00,32.5,29.4,30.07,WSW,247,0.0,-999.0,88,-99.99,,,0.00,Acu-Link.com,2013-02-17 07:06:00,
2013-02-17 01:21:00,32.0,29.7,30.07,North,0,0.0,-999.0,91,-99.99,,,0.00,Acu-Link.com,2013-02-17 07:21:00,
2013-02-17 01:37:00,31.5,29.4,30.07,NNE,22,0.0,-999.0,92,-99.99,,,0.00,Acu-Link.com,2013-02-17 07:37:00,
2013-02-17 01:52:00,30.6,28.8,30.07,West,270,0.0,-999.0,93,-99.99,,,0.00,Acu-Link.com,2013-02-17 07:52:00,
2013-02-17 02:07:00,29.8,28.6,30.07,WNW,292,0.0,-999.0,95,-99.99,,,0.00,Acu-Link.com,2013-02-17 08:07:00,
2013-02-17 02:22:00,29.3,28.3,30.07,WSW,247,0.0,-999.0,96,-99.99,,,0.00,Acu-Link.com,2013-02-17 08:22:00,
2013-02-17 02:38:00,28.8,27.5,30.06,SSE,157,0.0,-999.0,95,-99.99,,,0.00,Acu-Link.com,2013-02-17 08:38:00,
2013-02-17 02:53:00,28.6,28.1,30.06,ENE,67,0.0,-999.0,98,-99.99,,,0.00,Acu-Link.com,2013-02-17 08:53:00,
2013-02-17 03:16:00,28.6,28.1,30.06,NE,45,0.0,-999.0,98,-99.99,,,0.00,Acu-Link.com,2013-02-17 09:16:00,
2013-02-17 03:32:00,28.9,28.4,30.05,SSE,157,0.0,-999.0,98,-99.99,,,0.00,Acu-Link.com,2013-02-17 09:32:00,
2013-02-17 03:47:00,28.9,28.4,30.05,SW,225,0.0,-999.0,98,-99.99,,,0.00,Acu-Link.com,2013-02-17 09:47:00,
2013-02-17 04:02:00,29.3,28.8,30.05,WSW,247,0.0,-999.0,98,-99.99,,,0.00,Acu-Link.com,2013-02-17 10:02:00,
2013-02-17 04:17:00,28.9,28.4,30.04,West,270,0.0,-999.0,98,-99.99,,,0.00,Acu-Link.com,2013-02-17 10:17:00,
2013-02-17 04:33:00,28.8,28.3,30.04,SW,225,0.0,-999.0,98,-99.99,,,0.00,Acu-Link.com,2013-02-17 10:33:00,
2013-02-17 04:48:00,28.6,28.1,30.04,NNW,337,0.0,-999.0,98,-99.99,,,0.00,Acu-Link.com,2013-02-17 10:48:00,
2013-02-17 05:03:00,28.4,27.9,30.04,SW,225,0.0,-999.0,98,-99.99,,,0.00,Acu-Link.com,2013-02-17 11:03:00,
2013-02-17 05:18:00,28.0,27.5,30.04,SSW,202,0.0,-999.0,98,-99.99,,,0.00,Acu-Link.com,2013-02-17 11:18:00,
2013-02-17 05:33:00,27.7,27.2,30.04,NNW,337,0.0,-999.0,98,-99.99,,,0.00,Acu-Link.com,2013-02-17 11:33:00,
2013-02-17 05:49:00,27.3,26.8,30.04,NNW,337,0.0,-999.0,98,-99.99,,,0.00,Acu-Link.com,2013-02-17 11:49:00,
2013-02-17 06:04:00,27.0,26.5,30.04,West,270,0.0,-999.0,98,-99.99,,,0.00,Acu-Link.com,2013-02-17 12:04:00,
2013-02-17 06:19:00,26.6,26.1,30.04,West,270,0.0,-999.0,98,-99.99,,,0.00,Acu-Link.com,2013-02-17 12:19:00,
2013-02-17 06:34:00,26.2,25.8,30.04,SSW,202,0.0,-999.0,98,-99.99,,,0.00,Acu-Link.com,2013-02-17 12:34:00,
2013-02-17 06:49:00,26.2,25.8,30.04,SSW,202,0.0,-999.0,98,-99.99,,,0.00,Acu-Link.com,2013-02-17 12:49:00,
2013-02-17 07:05:00,26.6,26.1,30.04,West,270,0.0,-999.0,98,-99.99,,,0.00,Acu-Link.com,2013-02-17 13:05:00,
2013-02-17 07:20:00,26.1,25.6,30.04,SSW,202,0.0,-999.0,98,-99.99,,,0.00,Acu-Link.com,2013-02-17 13:20:00,
2013-02-17 07:35:00,28.9,28.4,30.04,SSW,202,0.0,-999.0,98,-99.99,,,0.00,Acu-Link.com,2013-02-17 13:35:00,
2013-02-17 07:50:00,34.3,32.0,30.04,SSW,202,0.0,-999.0,91,-99.99,,,0.00,Acu-Link.com,2013-02-17 13:50:00,
2013-02-17 08:05:00,36.5,32.1,30.04,SSW,202,0.0,-999.0,84,-99.99,,,0.00,Acu-Link.com,2013-02-17 14:05:00,
2013-02-17 08:21:00,39.7,32.8,30.04,SSW,202,0.0,-999.0,76,-99.99,,,0.00,Acu-Link.com,2013-02-17 14:21:00,
2013-02-17 08:36:00,42.8,33.0,30.04,South,180,3.1,-999.0,68,-99.99,,,0.00,Acu-Link.com,2013-02-17 14:36:00,
2013-02-17 08:51:00,45.0,33.9,30.05,South,180,2.7,-999.0,65,-99.99,,,0.00,Acu-Link.com,2013-02-17 14:51:00,
2013-02-17 09:06:00,48.4,33.9,30.04,SSW,202,4.7,-999.0,57,-99.99,,,0.00,Acu-Link.com,2013-02-17 15:06:00,
2013-02-17 09:21:00,50.2,34.2,30.05,SSW,202,5.1,-999.0,54,-99.99,,,0.00,Acu-Link.com,2013-02-17 15:21:00,
2013-02-17 09:37:00,52.7,35.1,30.05,South,180,10.3,-999.0,51,-99.99,,,0.00,Acu-Link.com,2013-02-17 15:37:00,
2013-02-17 09:52:00,54.3,36.1,30.04,SSE,157,13.4,-999.0,50,-99.99,,,0.00,Acu-Link.com,2013-02-17 15:52:00,
2013-02-17 10:07:00,56.5,36.5,30.04,SSW,202,9.4,-999.0,47,-99.99,,,0.00,Acu-Link.com,2013-02-17 16:07:00,
2013-02-17 10:22:00,58.8,36.4,30.02,SSW,202,9.4,-999.0,43,-99.99,,,0.00,Acu-Link.com,2013-02-17 16:22:00,
2013-02-17 10:38:00,59.9,37.4,30.02,South,180,11.9,-999.0,43,-99.99,,,0.00,Acu-Link.com,2013-02-17 16:38:00,
2013-02-17 10:53:00,61.2,36.6,30.02,SSW,202,11.4,-999.0,40,-99.99,,,0.00,Acu-Link.com,2013-02-17 16:53:00,
2013-02-17 11:08:00,63.3,37.3,30.01,WSW,247,7.8,-999.0,38,-99.99,,,0.00,Acu-Link.com,2013-02-17 17:08:00,
2013-02-17 11:23:00,64.9,37.3,30.00,South,180,7.4,-999.0,36,-99.99,,,0.00,Acu-Link.com,2013-02-17 17:23:00,
2013-02-17 11:38:00,66.7,38.2,29.99,SSW,202,6.3,-999.0,35,-99.99,,,0.00,Acu-Link.com,2013-02-17 17:38:00,
2013-02-17 11:54:00,67.1,37.0,29.99,SSW,202,12.5,-999.0,33,-99.99,,,0.00,Acu-Link.com,2013-02-17 17:54:00,
2013-02-17 12:09:00,67.6,38.3,29.98,SSE,157,6.7,-999.0,34,-99.99,,,0.00,Acu-Link.com,2013-02-17 18:09:00,
2013-02-17 12:24:00,69.1,38.0,29.97,SE,135,14.1,-999.0,32,-99.99,,,0.00,Acu-Link.com,2013-02-17 18:24:00,
2013-02-17 12:39:00,70.5,37.6,29.95,WSW,247,4.7,-999.0,30,-99.99,,,0.00,Acu-Link.com,2013-02-17 18:39:00,
2013-02-17 12:55:00,70.9,37.0,29.93,SSE,157,5.8,-999.0,29,-99.99,,,0.00,Acu-Link.com,2013-02-17 18:55:00,
2013-02-17 13:10:00,71.4,34.7,29.93,South,180,7.4,-999.0,26,-99.99,,,0.00,Acu-Link.com,2013-02-17 19:10:00,
2013-02-17 13:25:00,72.3,33.5,29.91,SSW,202,15.0,-999.0,24,-99.99,,,0.00,Acu-Link.com,2013-02-17 19:25:00,
2013-02-17 13:40:00,72.0,31.0,29.90,South,180,14.1,-999.0,22,-99.99,,,0.00,Acu-Link.com,2013-02-17 19:40:00,
2013-02-17 13:55:00,71.6,29.6,29.89,South,180,15.0,-999.0,21,-99.99,,,0.00,Acu-Link.com,2013-02-17 19:55:00,
2013-02-17 14:11:00,72.3,31.3,29.88,South,180,11.0,-999.0,22,-99.99,,,0.00,Acu-Link.com,2013-02-17 20:11:00,
2013-02-17 14:26:00,71.8,33.0,29.87,West,270,9.8,-999.0,24,-99.99,,,0.00,Acu-Link.com,2013-02-17 20:26:00,
2013-02-17 14:41:00,72.0,33.2,29.86,South,180,13.4,-999.0,24,-99.99,,,0.00,Acu-Link.com,2013-02-17 20:41:00,
2013-02-17 14:56:00,72.3,31.3,29.85,ESE,112,19.0,-999.0,22,-99.99,,,0.00,Acu-Link.com,2013-02-17 20:56:00,
2013-02-17 15:11:00,73.6,34.6,29.85,SSW,202,7.8,-999.0,24,-99.99,,,0.00,Acu-Link.com,2013-02-17 21:11:00,
2013-02-17 15:27:00,72.3,32.4,29.83,SSE,157,9.8,-999.0,23,-99.99,,,0.00,Acu-Link.com,2013-02-17 21:27:00,
2013-02-17 15:42:00,72.3,33.5,29.84,SSE,157,9.4,-999.0,24,-99.99,,,0.00,Acu-Link.com,2013-02-17 21:42:00,
2013-02-17 15:57:00,72.3,33.5,29.83,NNE,22,11.4,-999.0,24,-99.99,,,0.00,Acu-Link.com,2013-02-17 21:57:00,
2013-02-17 16:12:00,71.8,36.0,29.82,SSE,157,8.9,-999.0,27,-99.99,,,0.00,Acu-Link.com,2013-02-17 22:12:00,
2013-02-17 16:27:00,71.2,35.5,29.82,WSW,247,12.5,-999.0,27,-99.99,,,0.00,Acu-Link.com,2013-02-17 22:27:00,
2013-02-17 16:43:00,69.6,37.6,29.82,SW,225,8.9,-999.0,31,-99.99,,,0.00,Acu-Link.com,2013-02-17 22:43:00,
2013-02-17 16:58:00,70.3,39.9,29.82,SW,225,9.8,-999.0,33,-99.99,,,0.00,Acu-Link.com,2013-02-17 22:58:00,
2013-02-17 17:13:00,70.2,39.7,29.81,South,180,14.5,-999.0,33,-99.99,,,0.00,Acu-Link.com,2013-02-17 23:13:00,
2013-02-17 17:28:00,68.9,39.4,29.81,South,180,6.7,-999.0,34,-99.99,,,0.00,Acu-Link.com,2013-02-17 23:28:00,
2013-02-17 17:44:00,68.2,40.2,29.81,SSE,157,11.4,-999.0,36,-99.99,,,0.00,Acu-Link.com,2013-02-17 23:44:00,
2013-02-17 17:59:00,67.5,41.0,29.81,South,180,5.8,-999.0,38,-99.99,,,0.00,Acu-Link.com,2013-02-17 23:59:00,
2013-02-17 18:14:00,66.6,42.1,29.82,South,180,11.4,-999.0,41,-99.99,,,0.00,Acu-Link.com,2013-02-18 00:14:00,
2013-02-17 18:29:00,64.9,42.5,29.81,SSW,202,9.4,-999.0,44,-99.99,,,0.00,Acu-Link.com,2013-02-18 00:29:00,
2013-02-17 18:44:00,64.0,42.8,29.81,SW,225,7.4,-999.0,46,-99.99,,,0.00,Acu-Link.com,2013-02-18 00:44:00,
2013-02-17 19:00:00,63.7,44.7,29.81,ESE,112,7.4,-999.0,50,-99.99,,,0.00,Acu-Link.com,2013-02-18 01:00:00,
2013-02-17 19:15:00,63.1,45.2,29.82,SSE,157,5.8,-999.0,52,-99.99,,,0.00,Acu-Link.com,2013-02-18 01:15:00,
2013-02-17 19:30:00,62.4,44.6,29.82,SSE,157,10.3,-999.0,52,-99.99,,,0.00,Acu-Link.com,2013-02-18 01:30:00,
2013-02-17 19:45:00,62.1,44.7,29.82,South,180,7.4,-999.0,53,-99.99,,,0.00,Acu-Link.com,2013-02-18 01:45:00,
2013-02-17 20:00:00,61.2,44.4,29.81,South,180,9.8,-999.0,54,-99.99,,,0.00,Acu-Link.com,2013-02-18 02:00:00,
2013-02-17 20:16:00,60.4,44.2,29.82,SSW,202,6.7,-999.0,55,-99.99,,,0.00,Acu-Link.com,2013-02-18 02:16:00,
2013-02-17 20:31:00,60.1,44.8,29.83,South,180,5.8,-999.0,57,-99.99,,,0.00,Acu-Link.com,2013-02-18 02:31:00,
2013-02-17 20:46:00,59.4,45.0,29.83,SSE,157,7.4,-999.0,59,-99.99,,,0.00,Acu-Link.com,2013-02-18 02:46:00,
2013-02-17 21:01:00,58.3,45.3,29.83,South,180,4.7,-999.0,62,-99.99,,,0.00,Acu-Link.com,2013-02-18 03:01:00,
2013-02-17 21:16:00,57.9,45.8,29.84,SSE,157,4.7,-999.0,64,-99.99,,,0.00,Acu-Link.com,2013-02-18 03:16:00,
2013-02-17 21:32:00,57.6,45.9,29.84,SSE,157,4.3,-999.0,65,-99.99,,,0.00,Acu-Link.com,2013-02-18 03:32:00,
2013-02-17 21:47:00,57.0,46.6,29.83,SE,135,3.1,-999.0,68,-99.99,,,0.00,Acu-Link.com,2013-02-18 03:47:00,
2013-02-17 22:02:00,57.2,49.3,29.83,ESE,112,9.8,-999.0,75,-99.99,,,0.00,Acu-Link.com,2013-02-18 04:02:00,
2013-02-17 22:17:00,57.0,50.6,29.82,ESE,112,7.8,-999.0,79,-99.99,,,0.00,Acu-Link.com,2013-02-18 04:17:00,
2013-02-17 22:32:00,57.0,50.9,29.82,South,180,5.8,-999.0,80,-99.99,,,0.00,Acu-Link.com,2013-02-18 04:32:00,
2013-02-17 22:48:00,56.5,51.1,29.82,SSE,157,11.4,-999.0,82,-99.99,,,0.00,Acu-Link.com,2013-02-18 04:48:00,
2013-02-17 23:03:00,55.9,51.5,29.82,SSE,157,11.4,-999.0,85,-99.99,,,0.00,Acu-Link.com,2013-02-18 05:03:00,
2013-02-17 23:18:00,55.9,51.8,29.81,SE,135,5.1,-999.0,86,-99.99,,,0.00,Acu-Link.com,2013-02-18 05:18:00,
2013-02-17 23:33:00,55.6,52.1,29.81,ESE,112,4.7,-999.0,88,-99.99,,,0.00,Acu-Link.com,2013-02-18 05:33:00,
2013-02-17 23:48:00,55.9,53.0,29.81,ESE,112,8.3,-999.0,90,-99.99,,,0.00,Acu-Link.com,2013-02-18 05:48:00,